Regional Weather Roundup
Issued by NWS

Home | Current Version | Previous Version | Graphics & Text | Print | Product List | Glossary Off
Versions: 1 2 3 4 5 6 7 8 9 10 11 12 13 14 15 16 17 18 19 20 21 22 23 24 25 26 27 28 29 30 31 32 33 34 35 36 37 38 39 40 41 42 43 44 45 46 47 48 49 50

000
ASUS43 KTOP 011808
RWRKS

WEATHER ROUNDUP FOR KANSAS
NATIONAL WEATHER SERVICE GOODLAND KS
100 PM CDT SUN MAY 01 2016

NOTE:  "FAIR" INDICATES FEW OR NO CLOUDS BELOW 12,000 FEET WITH NO
SIGNIFICANT WEATHER AND/OR OBSTRUCTIONS TO VISIBILITY.

KSZ001>006-013>018-027>032-041>047-011900-
NORTHWEST KANSAS

CITY           SKY/WX    TMP DP  RH WIND       PRES   REMARKS
GOODLAND       PTSUNNY   47  35  63 N22G29    30.22F
6HR MIN TEMP:  34; 6HR MAX TEMP:  47; 6HR PCP:  0.01;

HAYS           CLOUDY    48  34  57 N20       30.17F
HILL CITY      CLOUDY    49  39  68 N20G29    30.21R
6HR MIN TEMP:  40; 6HR MAX TEMP:  50;

RUSSELL        CLOUDY    49  40  71 N21       30.14S
6HR MIN TEMP:  43; 6HR MAX TEMP:  49; 6HR PCP: TRACE;

$$

KSZ061>065-074>080-084>089-011900-
SOUTHWEST KANSAS

CITY           SKY/WX    TMP DP  RH WIND       PRES   REMARKS
DODGE CITY     CLOUDY    44  36  73 N23       30.17S
6HR MIN TEMP:  39; 6HR MAX TEMP:  45;

ELKHART          N/A     42  31  65 N16         N/A
GARDEN CITY    CLOUDY    44  35  70 N18G28    30.20R
6HR MIN TEMP:  38; 6HR MAX TEMP:  44;

GREAT BEND     CLOUDY    48  37  66 N20G28    30.14S
LIBERAL        CLOUDY    46  34  61 N23G29    30.19F
PRATT          CLOUDY    46  38  72 N18G24    30.15R
6HR MIN TEMP:  40; 6HR MAX TEMP:  46;

$$

KSZ066>073-081>083-090>101-011900-
SOUTHEAST KANSAS

CITY           SKY/WX    TMP DP  RH WIND       PRES   REMARKS
CHANUTE        PTSUNNY   60  43  53 W13       30.05S
6HR MIN TEMP:  45; 6HR MAX TEMP:  60;

COFFEYVILLE    MOSUNNY   61  45  55 NW9       30.07S
6HR MIN TEMP:  47; 6HR MAX TEMP:  62;

HUTCHINSON     CLOUDY    52  41  66 N20G25    30.11S
6HR MIN TEMP:  44; 6HR MAX TEMP:  53;

MEDICINE LODGE   N/A     53  41  63 NW14G23   30.14R
NEWTON         CLOUDY    52  39  62 NW21      30.11S
PARSONS        MOSUNNY   61  46  57 NW10G20   30.07S
6HR MIN TEMP:  42; 6HR MAX TEMP:  62;

WICHITA INTL   CLOUDY    56  43  61 NW18      30.10R
6HR MIN TEMP:  45; 6HR MAX TEMP:  56;

WICHITA JABRA  CLOUDY    53  44  71 NW16      30.10R
6HR MIN TEMP:  44; 6HR MAX TEMP:  55;

WICHITA MCCONL PTSUNNY   55  44  66 NW16G22   30.09S
WINFIELD       CLOUDY    57  45  64 NW13      30.11R
6HR MIN TEMP:  43; 6HR MAX TEMP:  57;

$$

KSZ007>012-019>026-033>040-048>060-102>105-011900-
NORTHEAST KANSAS

CITY           SKY/WX    TMP DP  RH WIND       PRES   REMARKS
CONCORDIA      CLOUDY    48  41  76 N15G23    30.12R
6HR MIN TEMP:  45; 6HR MAX TEMP:  49; 6HR PCP:  0.01;

EMPORIA        CLOUDY    54  46  74 NW12      30.05F
6HR MIN TEMP:  44; 6HR MAX TEMP:  55;

LAWRENCE       PTSUNNY   62  47  57 NW13      30.02R
6HR MIN TEMP:  46; 6HR MAX TEMP:  62;

MANHATTAN      CLOUDY    55  46  71 N8        30.06R
6HR MIN TEMP:  47; 6HR MAX TEMP:  57; 6HR PCP: TRACE;

MARYSVILLE     CLOUDY    48  45  87 N13       30.08R
OLATHE IND     CLOUDY    57  45  64 W10       30.02R
6HR MIN TEMP:  47; 6HR MAX TEMP:  58;

OLATHE EXE     CLOUDY    56  43  61 W12       30.01R
6HR MIN TEMP:  47; 6HR MAX TEMP:  57;

SALINA         CLOUDY    51  43  74 N23       30.12R
6HR MIN TEMP:  44; 6HR MAX TEMP:  52;

TOPEKA BILLARD CLOUDY    59  47  64 W15G21    30.03R
6HR MIN TEMP:  48; 6HR MAX TEMP:  59;

TOPEKA FORBES  PTSUNNY   60  45  57 W14       30.02S
6HR MIN TEMP:  47; 6HR MAX TEMP:  62;

$$




USA.gov is the U.S. government's official web portal to all federal, state and local government web resources and services.